Location: Stony Creek
(40.9500°S, 175.8500°E)
Time: 10:11:41
(UTC+00:00)

BREEZE-M DEB - Pass Details

Date: 15 May 2026
Orbit: 286 x 15290 km, 49.5° (Epoch: 9 June)

Event Time Altitude Azimuth Distance (km) Brightness Sun altitude
Exits shadow 17:08:14 47° 241° (WSW) 1,404 4.4 -24.4°
Maximum altitude 17:10:07 85° 326° (NW) 831 3.5 -24.0°
Drops below altitude 10° 17:13:22 10° 54° (NE) 1,677 6.1 -23.4°
Sets 17:14:40 0° 55° (NE) 2,299 7.0 -23.1°
